K5GHS-1 Weather Reports


Display with metric or nautical units.
time (UTC)temp
F
wind
direction
speed
MPH
gust
MPH
rain 1hr
in
rain 24hr
in
rain mn
in
humidity
%
barometer
mb
20260504090140 65 83 1.0 3.0 0.00 0.00 0.00 63 1011.8
20260504081610 66 87 0.0 1.0 0.00 0.00 0.00 59 1012.1
20260504081106 66 88 1.0 1.0 0.00 0.00 0.00 59 1011.9
20260504080603 66 105 1.0 2.0 0.00 0.00 0.00 58 1011.8
20260504050415 69 88 1.0 2.0 0.00 0.00 0.00 54 1014.0
20260504045912 69 125 1.0 1.0 0.00 0.00 0.00 53 1014.0
20260504045408 69 102 1.0 3.0 0.00 0.00 0.00 53 1014.0
20260504044905 70 110 1.0 1.0 0.00 0.00 0.00 53 1013.9
20260504044402 70 132 2.0 3.0 0.00 0.00 0.00 53 1014.1
20260504043900 70 89 0.0 2.0 0.00 0.00 0.00 52 1014.1
20260504043356 70 118 1.0 1.0 0.00 0.00 0.00 52 1014.1
20260504042854 70 112 2.0 2.0 0.00 0.00 0.00 51 1014.0
20260504042349 70 95 1.0 2.0 0.00 0.00 0.00 50 1013.9
20260504041846 70 123 1.0 1.0 0.00 0.00 0.00 50 1014.4
20260504041342 70 96 1.0 1.0 0.00 0.00 0.00 49 1014.3
20260504040838 71 86 0.0 1.0 0.00 0.00 0.00 49 1014.3
20260504040336 71 79 1.0 1.0 0.00 0.00 0.00 48 1014.2
20260504035832 71 85 1.0 2.0 0.00 0.00 0.00 48 1014.3
20260504035330 71 114 1.0 2.0 0.00 0.00 0.00 48 1014.2
20260504034827 71 108 1.0 1.0 0.00 0.00 0.00 48 1014.1
20260504034325 71 116 0.0 1.0 0.00 0.00 0.00 48 1014.2
20260504033821 71 90 0.0 1.0 0.00 0.00 0.00 48 1014.3
20260504033320 71 101 1.0 2.0 0.00 0.00 0.00 47 1014.1
20260504032815 71 99 2.0 3.0 0.00 0.00 0.00 47 1014.3
20260504032313 72 96 2.0 3.0 0.00 0.00 0.00 47 1014.1
20260504031809 72 116 1.0 1.0 0.00 0.00 0.00 47 1014.3
20260504031307 72 107 1.0 1.0 0.00 0.00 0.00 46 1014.0
20260504030803 72 146 2.0 3.0 0.00 0.00 0.00 46 1014.0
20260504030300 72 102 1.0 2.0 0.00 0.00 0.00 46 1014.0
20260504025756 72 101 1.0 1.0 0.00 0.00 0.00 46 1013.9
20260504025254 72 93 1.0 2.0 0.00 0.00 0.00 45 1014.1
20260504024750 73 77 0.0 2.0 0.00 0.00 0.00 45 1013.8
20260504024247 73 91 2.0 2.0 0.00 0.00 0.00 45 1014.1
20260504023744 73 96 0.0 2.0 0.00 0.00 0.00 44 1014.0
20260504023240 73 126 1.0 5.0 0.00 0.00 0.00 44 1014.1
20260504022736 73 113 1.0 3.0 0.00 0.00 0.00 44 1014.0
20260504022232 73 99 1.0 5.0 0.00 0.00 0.00 44 1014.1
20260504021730 74 97 2.0 2.0 0.00 0.00 0.00 43 1013.9
20260504021227 74 80 1.0 5.0 0.00 0.00 0.00 43 1013.9
20260504020723 74 111 2.0 3.0 0.00 0.00 0.00 43 1014.0
20260504020220 74 92 2.0 2.0 0.00 0.00 0.00 43 1013.7
20260504015716 74 110 1.0 2.0 0.00 0.00 0.00 43 1013.8
20260504015213 74 97 1.0 2.0 0.00 0.00 0.00 43 1013.8
20260504014708 74 143 0.0 1.0 0.00 0.00 0.00 42 1013.7
20260504014206 75 99 0.0 1.0 0.00 0.00 0.00 42 1013.9
20260504013703 75 116 1.0 2.0 0.00 0.00 0.00 41 1013.8
20260504013200 75 90 1.0 2.0 0.00 0.00 0.00 41 1013.8
20260504012657 75 88 1.0 1.0 0.00 0.00 0.00 40 1013.7
20260504012155 75 96 2.0 3.0 0.00 0.00 0.00 38 1013.6
20260504011652 76 132 1.0 2.0 0.00 0.00 0.00 37 1013.5
20260504011148 76 359 1.0 3.0 0.00 0.00 0.00 37 1013.4
20260504010644 76 101 1.0 1.0 0.00 0.00 0.00 37 1013.8
20260504010140 76 75 1.0 2.0 0.00 0.00 0.00 37 1013.6
20260504005637 76 88 2.0 3.0 0.00 0.00 0.00 36 1013.4
20260504005133 77 85 0.0 1.0 0.00 0.00 0.00 36 1013.6
20260504004632 77 98 0.0 1.0 0.00 0.00 0.00 36 1013.3
20260504004129 77 134 1.0 2.0 0.00 0.00 0.00 36 1013.4
20260504003625 77 87 1.0 2.0 0.00 0.00 0.00 35 1013.6
20260504003122 78 84 0.0 1.0 0.00 0.00 0.00 36 1013.4
20260504002619 78 85 0.0 2.0 0.00 0.00 0.00 35 1013.4
20260504002116 78 68 2.0 3.0 0.00 0.00 0.00 35 1013.5
20260504001614 78 93 1.0 1.0 0.00 0.00 0.00 35 1013.5
20260504001109 78 212 2.0 8.0 0.00 0.00 0.00 35 1013.6
20260504000607 79 87 0.0 2.0 0.00 0.00 0.00 34 1013.6
20260504000104 79 84 0.0 1.0 0.00 0.00 0.00 33 1013.7
20260503235603 79 87 0.0 2.0 0.00 0.00 0.00 33 1013.7
20260503235059 79 182 0.0 2.0 0.00 0.00 0.00 34 1013.8
20260503234557 79 122 1.0 5.0 0.00 0.00 0.00 33 1013.7
20260503234054 80 75 1.0 2.0 0.00 0.00 0.00 33 1013.7
20260503233545 80 230 2.0 3.0 0.00 0.00 0.00 31 1013.9
20260503233041 80 89 1.0 2.0 0.00 0.00 0.00 31 1014.0
20260503232539 81 102 2.0 10.0 0.00 0.00 0.00 31 1013.8
20260503232036 82 75 1.0 1.0 0.00 0.00 0.00 31 1013.9
20260503231534 83 85 0.0 2.0 0.00 0.00 0.00 30 1014.0
20260503231030 83 79 1.0 2.0 0.00 0.00 0.00 31 1013.8
20260503230527 83 218 2.0 2.0 0.00 0.00 0.00 30 1013.9
20260503230025 83 116 0.0 3.0 0.00 0.00 0.00 29 1014.1
20260503225521 84 137 3.0 5.0 0.00 0.00 0.00 29 1014.0
20260503225016 82 87 1.0 5.0 0.00 0.00 0.00 30 1014.1
20260503224514 83 92 1.0 5.0 0.00 0.00 0.00 29 1014.1
20260503224012 82 96 1.0 3.0 0.00 0.00 0.00 31 1014.0
20260503223510 84 144 6.0 10.0 0.00 0.00 0.00 29 1014.1
20260503223005 84 99 1.0 2.0 0.00 0.00 0.00 28 1014.1
20260503222503 84 85 1.0 1.0 0.00 0.00 0.00 27 1014.3
20260503222001 84 75 1.0 2.0 0.00 0.00 0.00 30 1014.2
20260503221459 84 96 1.0 2.0 0.00 0.00 0.00 30 1014.2
20260503220956 84 153 3.0 7.0 0.00 0.00 0.00 29 1014.5
20260503220452 85 159 2.0 6.0 0.00 0.00 0.00 30 1014.3
20260503215949 85 36 0.0 3.0 0.00 0.00 0.00 29 1014.4
20260503215446 84 232 1.0 3.0 0.00 0.00 0.00 31 1014.4
20260503214943 84 134 2.0 3.0 0.00 0.00 0.00 32 1014.5
20260503214441 84 74 1.0 2.0 0.00 0.00 0.00 31 1014.5
20260503213938 86 101 1.0 1.0 0.00 0.00 0.00 30 1014.5
20260503213437 85 87 0.0 5.0 0.00 0.00 0.00 31 1014.6
20260503212932 85 130 1.0 5.0 0.00 0.00 0.00 31 1014.6
20260503212430 84 73 1.0 3.0 0.00 0.00 0.00 31 1014.8
20260503211927 84 53 1.0 5.0 0.00 0.00 0.00 32 1015.0
20260503211424 85 142 1.0 5.0 0.00 0.00 0.00 31 1015.0
20260503210919 85 80 1.0 2.0 0.00 0.00 0.00 31 1014.9
20260503210416 85 81 1.0 2.0 0.00 0.00 0.00 30 1015.3
20260503205911 85 79 1.0 1.0 0.00 0.00 0.00 31 1015.1
20260503205409 85 72 1.0 5.0 0.00 0.00 0.00 32 1015.2
20260503204904 85 88 1.0 2.0 0.00 0.00 0.00 31 1015.6
20260503204402 85 66 0.0 2.0 0.00 0.00 0.00 33 1015.5
20260503203859 85 151 2.0 3.0 0.00 0.00 0.00 31 1015.4
20260503203356 85 155 1.0 2.0 0.00 0.00 0.00 32 1015.7
20260503202853 86 101 1.0 2.0 0.00 0.00 0.00 30 1015.7
20260503202351 85 74 0.0 0.0 0.00 0.00 0.00 32 1015.8
20260503201849 84 262 3.0 5.0 0.00 0.00 0.00 30 1016.1
20260503201346 84 188 3.0 5.0 0.00 0.00 0.00 31 1016.2
20260503200844 84 132 3.0 5.0 0.00 0.00 0.00 31 1016.1
20260503200339 84 99 1.0 2.0 0.00 0.00 0.00 30 1016.2
20260503195837 83 83 0.0 3.0 0.00 0.00 0.00 31 1016.5
20260503195333 84 120 1.0 3.0 0.00 0.00 0.00 31 1016.4
20260503194830 84 87 0.0 3.0 0.00 0.00 0.00 32 1016.3
20260503194326 84 260 2.0 3.0 0.00 0.00 0.00 31 1016.7
20260503193823 84 95 1.0 5.0 0.00 0.00 0.00 34 1016.5
20260503193319 84 80 0.0 5.0 0.00 0.00 0.00 33 1016.8
20260503192815 84 222 1.0 5.0 0.00 0.00 0.00 33 1016.9
20260503192310 83 84 1.0 2.0 0.00 0.00 0.00 34 1016.5
20260503191806 84 172 3.0 5.0 0.00 0.00 0.00 32 1017.1
20260503191304 83 74 1.0 3.0 0.00 0.00 0.00 35 1017.1
20260503190800 84 75 0.0 2.0 0.00 0.00 0.00 35 1016.9
20260503190258 83 82 0.0 1.0 0.00 0.00 0.00 34 1017.1
20260503185755 83 73 1.0 3.0 0.00 0.00 0.00 35 1017.1
20260503185250 85 167 1.0 6.0 0.00 0.00 0.00 34 1017.1
20260503184744 84 74 0.0 2.0 0.00 0.00 0.00 35 1017.2
20260503184241 83 65 1.0 5.0 0.00 0.00 0.00 35 1017.4
20260503183737 83 46 3.0 5.0 0.00 0.00 0.00 34 1017.2
20260503183235 83 117 1.0 3.0 0.00 0.00 0.00 37 1017.5
20260503182732 82 120 1.0 3.0 0.00 0.00 0.00 36 1017.5
20260503182231 83 181 1.0 2.0 0.00 0.00 0.00 37 1017.7
20260503181728 82 206 2.0 6.0 0.00 0.00 0.00 36 1017.8
20260503181225 81 142 2.0 3.0 0.00 0.00 0.00 38 1017.9
20260503180721 82 219 1.0 6.0 0.00 0.00 0.00 38 1018.2
20260503180220 82 118 2.0 3.0 0.00 0.00 0.00 36 1018.2
20260503175716 82 162 2.0 5.0 0.00 0.00 0.00 37 1018.4
20260503175214 81 80 1.0 5.0 0.00 0.00 0.00 39 1018.3
20260503174709 82 287 1.0 3.0 0.00 0.00 0.00 39 1018.3
20260503174207 81 95 1.0 2.0 0.00 0.00 0.00 39 1018.3
20260503173702 81 54 1.0 2.0 0.00 0.00 0.00 39 1018.7
20260503173159 81 194 2.0 3.0 0.00 0.00 0.00 38 1018.7
20260503172656 82 173 2.0 6.0 0.00 0.00 0.00 37 1018.8
20260503172153 81 61 0.0 2.0 0.00 0.00 0.00 40 1018.7
20260503171649 80 86 0.0 3.0 0.00 0.00 0.00 40 1018.7
20260503171147 80 71 0.0 1.0 0.00 0.00 0.00 41 1018.7
20260503170643 80 90 1.0 2.0 0.00 0.00 0.00 40 1018.9
20260503170140 80 65 1.0 2.0 0.00 0.00 0.00 42 1019.0
20260503150531 73 96 0.0 5.0 0.00 0.00 0.00 48 1019.1
20260503130921 65 83 0.0 1.0 0.00 0.00 0.00 64 1019.1
20260503130419 63 77 0.0 1.0 0.00 0.00 0.00 65 1019.0
20260503110817 57 80 0.0 0.0 0.00 0.00 0.00 73 1018.1
20260503110314 57 77 0.0 0.0 0.00 0.00 0.00 73 1018.2
20260503100240 57 79 0.0 0.0 0.00 0.00 0.00 72 1018.1